Regional Weather Roundup
Issued by NWS

Home | Current Version | Previous Version | Graphics & Text | Print | Product List | Glossary On
Versions: 1 2 3 4 5 6 7 8 9 10 11 12 13 14 15 16 17 18 19 20 21 22 23 24 25 26 27 28 29 30 31 32 33 34 35 36 37 38 39 40 41 42 43 44 45 46 47 48 49 50
000
ASUS43 KIND 060659
RWRIN

WEATHER ROUNDUP FOR INDIANA
NATIONAL WEATHER SERVICE INDIANAPOLIS IN
300 AM EDT MON JUL 06 2015

NOTE: "FAIR" INDICATES FEW OR NO CLOUDS BELOW 12,000 FEET WITH NO
SIGNIFICANT WEATHER AND/OR OBSTRUCTIONS TO VISIBILITY.

* - STATION DOES NOT REPORT WEATHER SUCH AS PRECIPITATION OR FOG.

+ - STATION NOT QUALITY CONTROLLED BY THE NATIONAL WEATHER SERVICE.
    USE DATA WITH CAUTION...ESPECIALLY DEWPOINT AND RELATIVE
    HUMIDITY OBSERVATIONS.

INZ001>003-010>013-019-020-060800-
NORTHWEST INDIANA

CITY           SKY/WX    TMP DP  RH WIND       PRES   REMARKS
KNOX *+        CLEAR     64  63  94 S5        30.03R
MONTICELLO +   CLEAR     67  65  92 CALM      30.03S
RENSSELAER +   CLEAR     68  66  94 S5        30.04R

$$

LMZ046-743>745-060800-
SOUTHERN LAKE MICHIGAN

STATION/POSITION TIME  TEMP    WIND        PRES    WAVE
                       AIR SEA DIR/SP/G            HT
                 (UTC) (F)     (DEG/KT/KT) (MB)    (FT)
BURNS HARBOR     0600   71     190/  8/ 11 1017.3R
MICHIGAN CITY    0600   72     140/  8/ 11   N/A
5NW MICH CITY    0600   68 67  180/  6/  8   N/A     1

$$

INZ004-005-014>016-021>024-060800-
NORTH CENTRAL INDIANA

CITY           SKY/WX    TMP DP  RH WIND       PRES   REMARKS
GOSHEN         CLEAR     62  59  90 CALM      30.05R
SOUTH BEND     CLEAR     68  61  78 S5        30.05R
WARSAW +         N/A     63  59  88 CALM      30.05S

$$

INZ006>009-017-018-025>027-060800-
NORTHEAST INDIANA

CITY           SKY/WX    TMP DP  RH WIND       PRES   REMARKS
ANGOLA *+        N/A     63  61  94 CALM      30.06F
FORT WAYNE     PTCLDY    63  59  87 CALM      30.06S

$$

INZ028-029-035-036-043>045-051>053-060800-
WEST CENTRAL INDIANA

CITY           SKY/WX    TMP DP  RH WIND       PRES   REMARKS
GREENCASTLE +  CLEAR     64  61  88 CALM      30.06S FOG
LAFAYETTE      CLEAR     67  63  87 CALM      30.03S
TERRE HAUTE    CLEAR     69  67  93 SE5       30.03F FOG

$$

INZ030>032-037>040-046>048-054>057-064-065-060800-
CENTRAL INDIANA

CITY           SKY/WX    TMP DP  RH WIND       PRES   REMARKS
FRANKFORT +    CLEAR    N/A N/A N/A CALM      30.06S HAZE
GREENWOOD *+   CLEAR     66  61  82 CALM      30.05F
INDIANAPOLIS   CLEAR     66  62  87 SE3       30.03F
-EAGLE CREEK   CLEAR     66  62  87 CALM      30.04F
KOKOMO *+      CLEAR     64  61  88 SW6       30.04F
MT COMFORT *+  CLEAR     63 N/A N/A SE6       30.06S
SHELBYVILLE    CLEAR     64  61  90 E3        30.04F FOG

$$

INZ033-034-041-042-049-050-058-059-060800-
EAST CENTRAL INDIANA

CITY           SKY/WX    TMP DP  RH WIND       PRES   REMARKS
MUNCIE         CLEAR     66  60  81 SW5       30.06F

$$

INZ060-061-067>069-081>083-085>088-060800-
SOUTHWEST INDIANA

CITY           SKY/WX    TMP DP  RH WIND       PRES   REMARKS
EVANSVILLE     PTCLDY    72  68  87 CALM      30.03F FOG
HUNTINGBURG *+ CLEAR     70  64  83 S5        30.04S

$$

INZ062-063-066-070>080-084-089>092-060800-
SOUTH CENTRAL AND SOUTHEAST INDIANA

CITY           SKY/WX    TMP DP  RH WIND       PRES   REMARKS
BLOOMINGTON    CLEAR     65  64  97 CALM      30.05F FOG
MADISON *+     CLEAR     63  61  94 CALM      30.07F
SEYMOUR +        N/A     64  63  94 CALM      30.05F FOG

$$



USA.gov is the U.S. government's official web portal to all federal, state and local government web resources and services.